M I D A S
Marine Information and Data Acquisition System
Tripno 747 of the Zeeleeuw from 2004-07-13 06:12:42 to 2004-07-13 17:27:28
Back to CruiseResearch ActivitiesStationsMapUnderway DataData graphs

EquipmentUnitsComments
TimeDGPSUTC
LatitudeDGPSDM.mWGS84
LongitudeDGPSDM.mWGS84
SpeedMeteo Stationm/sRelative wind speed
DirectionMeteo StationdegRelative wind direction
TemperatureMeteo Stationdeg CelciusAir temperature
PressureMeteo StationPaAtmospheric pressure
HumidityMeteo Station%Relative humidity
Missing or incorrect values are displayed as -999
Metereological data collected by the RV Zeeleeuw from 2004-07-13 06:12:42 to 2004-07-13 17:27:28
                                                                                    Next 1000 lines
Time Latitude Longitude Speed Direction Temperature Pressure Humidity
2004-07-13 06:12:53 51°13.597 2°56.096 2.9 181 15.3 101650 67
2004-07-13 06:12:57 51°13.597 2°56.096 2.6 178 15.4 101660 68
2004-07-13 06:13:02 51°13.597 2°56.096 2.9 174 15.4 101660 68
2004-07-13 06:13:08 51°13.597 2°56.096 3.4 183 15.4 101660 68
2004-07-13 06:13:13 51°13.597 2°56.096 2.8 180 15.4 101660 68
2004-07-13 06:13:17 51°13.597 2°56.096 3.1 175 15.4 101660 67
2004-07-13 06:13:22 51°13.597 2°56.096 1.9 184 15.4 101660 67
2004-07-13 06:13:28 51°13.597 2°56.096 2.3 207 15.4 101660 67
2004-07-13 06:13:32 51°13.597 2°56.096 2.6 183 15.4 101660 67
2004-07-13 06:13:37 51°13.597 2°56.096 2.7 209 15.4 101660 67
2004-07-13 06:13:42 51°13.597 2°56.096 2.2 180 15.4 101660 67
2004-07-13 06:13:48 51°13.597 2°56.096 2.3 191 15.4 101660 67
2004-07-13 06:13:53 51°13.597 2°56.096 1.9 208 15.4 101660 67
2004-07-13 06:13:57 51°13.597 2°56.096 2.5 178 15.5 101660 67
2004-07-13 06:14:01 51°13.597 2°56.096 3.1 192 15.5 101660 67
2004-07-13 06:14:07 51°13.597 2°56.096 3.4 178 15.4 101650 67
2004-07-13 06:14:13 51°13.597 2°56.096 2.9 157 15.4 101650 67
2004-07-13 06:14:17 51°13.597 2°56.096 2.9 155 15.5 101650 67
2004-07-13 06:14:22 51°13.597 2°56.096 2.6 148 15.5 101650 67
2004-07-13 06:14:28 51°13.597 2°56.096 2.6 153 15.4 101650 67
2004-07-13 06:14:32 51°13.597 2°56.096 2.5 155 15.4 101650 67
2004-07-13 06:14:37 51°13.597 2°56.096 2.4 168 15.5 101660 67
2004-07-13 06:14:42 51°13.597 2°56.096 2.6 167 15.5 101660 67
2004-07-13 06:14:48 51°13.597 2°56.096 2.7 159 15.5 101660 66
2004-07-13 06:14:53 51°13.597 2°56.096 2.4 166 15.5 101660 66
2004-07-13 06:14:57 51°13.597 2°56.096 3 178 15.4 101660 66
2004-07-13 06:15:02 51°13.597 2°56.096 2.6 165 15.4 101660 66
2004-07-13 06:15:08 51°13.597 2°56.096 2.9 182 15.4 101660 67
2004-07-13 06:15:12 51°13.597 2°56.096 3 162 15.4 101660 67
2004-07-13 06:15:17 51°13.597 2°56.096 2.7 158 15.4 101660 67
2004-07-13 06:15:22 51°13.597 2°56.096 2.5 164 15.4 101660 67
2004-07-13 06:15:28 51°13.597 2°56.096 2.5 164 15.5 101660 68
2004-07-13 06:15:32 51°13.597 2°56.096 3.5 157 15.5 101660 68
2004-07-13 06:15:37 51°13.597 2°56.096 3.6 159 15.4 101660 68
2004-07-13 06:15:42 51°13.597 2°56.096 3.3 164 15.4 101660 68
2004-07-13 06:15:47 51°13.597 2°56.096 3.2 165 15.4 101660 68
2004-07-13 06:15:52 51°13.597 2°56.096 3.4 160 15.4 101660 68
2004-07-13 06:15:57 51°13.597 2°56.096 3.6 163 15.4 101660 67
2004-07-13 06:16:02 51°13.597 2°56.096 3.3 164 15.4 101660 67
2004-07-13 06:16:07 51°13.597 2°56.096 3.1 161 15.4 101660 67
2004-07-13 06:16:12 51°13.597 2°56.096 3.1 172 15.4 101660 67
2004-07-13 06:16:16 51°13.597 2°56.096 4.4 171 15.4 101660 67
2004-07-13 06:16:22 51°13.597 2°56.096 4.3 167 15.4 101660 67
2004-07-13 06:16:28 51°13.597 2°56.096 3.8 167 15.4 101660 67
2004-07-13 06:16:32 51°13.597 2°56.096 4.9 166 15.4 101660 67
2004-07-13 06:16:37 51°13.597 2°56.096 4.2 163 15.3 101660 67
2004-07-13 06:16:42 51°13.597 2°56.096 4.3 170 15.3 101660 67
2004-07-13 06:16:48 51°13.597 2°56.096 4.8 166 15.3 101660 67
2004-07-13 06:16:52 51°13.597 2°56.096 4.7 169 15.3 101660 67
2004-07-13 06:16:57 51°13.597 2°56.096 4.6 165 15.3 101660 67
2004-07-13 06:17:02 51°13.597 2°56.096 4.7 161 15.3 101660 67
2004-07-13 06:17:06 51°13.597 2°56.096 4.7 168 15.3 101660 67
2004-07-13 06:17:12 51°13.597 2°56.096 4 173 15.3 101660 67
2004-07-13 06:17:18 51°13.597 2°56.096 4.6 180 15.3 101660 67
2004-07-13 06:17:22 51°13.597 2°56.096 3.9 156 15.3 101660 67
2004-07-13 06:17:26 51°13.597 2°56.096 3.6 172 15.3 101660 67
2004-07-13 06:17:32 51°13.597 2°56.096 3.5 174 15.3 101660 67
2004-07-13 06:17:36 51°13.597 2°56.097 3.4 175 15.2 101660 67
2004-07-13 06:17:42 51°13.597 2°56.097 3 155 15.2 101660 67
2004-07-13 06:17:48 51°13.597 2°56.097 2.5 163 15.2 101660 67
2004-07-13 06:17:53 51°13.597 2°56.097 3.1 161 15.2 101660 67
2004-07-13 06:17:58 51°13.597 2°56.096 3.2 158 15.2 101660 67
2004-07-13 06:18:02 51°13.597 2°56.096 2.8 153 15.2 101660 67
2004-07-13 06:18:08 51°13.597 2°56.096 3.3 164 15.2 101660 67
2004-07-13 06:18:12 51°13.597 2°56.096 3.4 170 15.2 101660 67
2004-07-13 06:18:17 51°13.596 2°56.096 3.2 177 15.2 101660 67
2004-07-13 06:18:22 51°13.596 2°56.096 2.7 179 15.2 101660 67
2004-07-13 06:18:28 51°13.597 2°56.094 2.9 184 15.2 101660 67
2004-07-13 06:18:33 51°13.597 2°56.092 2.8 178 15.2 101660 67
2004-07-13 06:18:37 51°13.598 2°56.09 2.8 163 15.2 101660 67
2004-07-13 06:18:42 51°13.599 2°56.086 3.4 171 15.2 101660 67
2004-07-13 06:18:46 51°13.599 2°56.083 3.2 189 15.2 101660 67
2004-07-13 06:18:52 51°13.601 2°56.077 3.2 183 15.2 101660 67
2004-07-13 06:18:58 51°13.603 2°56.07 3.1 186 15.2 101660 68
2004-07-13 06:19:03 51°13.605 2°56.064 4.3 176 15.2 101660 68
2004-07-13 06:19:08 51°13.607 2°56.058 3.6 180 15.2 101660 68
2004-07-13 06:19:13 51°13.609 2°56.051 3.3 208 15.2 101660 68
2004-07-13 06:19:18 51°13.611 2°56.044 4.2 198 15.2 101660 67
2004-07-13 06:19:23 51°13.614 2°56.036 3.6 190 15.2 101660 67
2004-07-13 06:19:28 51°13.616 2°56.028 3.6 186 15.2 101660 67
2004-07-13 06:19:33 51°13.619 2°56.02 5.7 202 15.2 101660 67
2004-07-13 06:19:38 51°13.621 2°56.012 4.6 207 15.3 101660 68
2004-07-13 06:19:42 51°13.623 2°56.005 5.3 199 15.3 101660 68
2004-07-13 06:19:48 51°13.626 2°55.995 5 188 15.3 101660 69
2004-07-13 06:19:53 51°13.629 2°55.986 6.5 199 15.3 101660 69
2004-07-13 06:19:58 51°13.632 2°55.977 6.6 201 15.4 101660 68
2004-07-13 06:20:02 51°13.634 2°55.97 5.7 203 15.4 101660 68
2004-07-13 06:20:08 51°13.637 2°55.959 4.9 185 15.4 101660 68
2004-07-13 06:20:13 51°13.639 2°55.95 3.6 179 15.4 101660 68
2004-07-13 06:20:18 51°13.642 2°55.941 3.2 192 15.5 101660 69
2004-07-13 06:20:23 51°13.644 2°55.932 6.1 210 15.5 101660 69
2004-07-13 06:20:28 51°13.646 2°55.923 6.2 206 15.5 101660 68
2004-07-13 06:20:33 51°13.649 2°55.913 6.7 214 15.5 101660 68
2004-07-13 06:20:37 51°13.65 2°55.906 6.5 210 15.5 101660 67
2004-07-13 06:20:42 51°13.652 2°55.896 6.9 217 15.5 101660 67
2004-07-13 06:20:48 51°13.654 2°55.884 6.6 217 15.5 101660 66
2004-07-13 06:20:53 51°13.656 2°55.874 6.7 218 15.5 101660 66
2004-07-13 06:20:58 51°13.657 2°55.864 7.6 217 15.5 101660 65
2004-07-13 06:21:03 51°13.658 2°55.854 5.5 202 15.5 101660 65
2004-07-13 06:21:08 51°13.659 2°55.844 6.6 204 15.5 101660 65
2004-07-13 06:21:13 51°13.659 2°55.834 4.9 208 15.5 101660 65
2004-07-13 06:21:18 51°13.66 2°55.824 4.3 205 15.5 101660 66
2004-07-13 06:21:24 51°13.66 2°55.812 3.6 212 15.5 101660 66
2004-07-13 06:21:28 51°13.66 2°55.803 4 210 15.5 101660 66
2004-07-13 06:21:33 51°13.659 2°55.794 4.9 232 15.5 101660 66
2004-07-13 06:21:38 51°13.659 2°55.785 3.8 248 15.4 101660 66
2004-07-13 06:21:43 51°13.659 2°55.779 3.8 245 15.4 101660 66
2004-07-13 06:21:48 51°13.658 2°55.775 4.3 243 15.5 101660 66
2004-07-13 06:21:53 51°13.658 2°55.773 2.3 254 15.5 101660 66
2004-07-13 06:21:58 51°13.659 2°55.773 3.7 267 15.4 101660 66
2004-07-13 06:22:02 51°13.66 2°55.774 3.6 288 15.4 101660 66
2004-07-13 06:22:08 51°13.663 2°55.779 3.6 303 15.4 101660 67
2004-07-13 06:22:13 51°13.667 2°55.782 4.4 326 15.4 101660 67
2004-07-13 06:22:18 51°13.672 2°55.786 4.5 329 15.4 101660 66
2004-07-13 06:22:22 51°13.677 2°55.788 4.7 320 15.4 101660 66
2004-07-13 06:22:28 51°13.685 2°55.789 5.2 344 15.4 101660 67
2004-07-13 06:22:33 51°13.693 2°55.788 7.6 341 15.4 101660 67
2004-07-13 06:22:36 51°13.698 2°55.786 6.5 346 15.4 101660 66
2004-07-13 06:22:42 51°13.707 2°55.78 7.7 356 15.4 101660 66
2004-07-13 06:22:48 51°13.717 2°55.77 8.2 355 15.4 101660 66
2004-07-13 06:22:53 51°13.725 2°55.762 8.4 358 15.4 101660 66
2004-07-13 06:22:57 51°13.732 2°55.754 8.2 4 15.4 101660 66
2004-07-13 06:23:02 51°13.74 2°55.745 7.1 347 15.4 101660 66
2004-07-13 06:23:08 51°13.749 2°55.733 6.9 357 15.4 101650 66
2004-07-13 06:23:13 51°13.755 2°55.723 7.6 4 15.4 101650 66
2004-07-13 06:23:17 51°13.761 2°55.715 7.4 6 15.3 101650 65
2004-07-13 06:23:22 51°13.768 2°55.704 7 3 15.3 101650 65
2004-07-13 06:23:28 51°13.777 2°55.692 6.8 359 15.3 101650 65
2004-07-13 06:23:33 51°13.785 2°55.682 7.4 345 15.3 101650 65
2004-07-13 06:23:37 51°13.791 2°55.674 6.8 352 15.3 101660 65
2004-07-13 06:23:42 51°13.799 2°55.663 6.4 348 15.3 101660 65
2004-07-13 06:23:48 51°13.808 2°55.651 6 355 15.3 101660 66
2004-07-13 06:23:53 51°13.816 2°55.642 6.3 342 15.3 101660 66
2004-07-13 06:23:56 51°13.821 2°55.636 5.2 352 15.3 101660 66
2004-07-13 06:24:02 51°13.832 2°55.626 5.9 356 15.3 101660 66
2004-07-13 06:24:08 51°13.843 2°55.617 5.9 352 15.3 101660 66
2004-07-13 06:24:13 51°13.852 2°55.609 6.3 335 15.3 101660 66
2004-07-13 06:24:17 51°13.86 2°55.604 5.7 339 15.3 101660 66
2004-07-13 06:24:22 51°13.869 2°55.596 5.1 349 15.3 101660 66
2004-07-13 06:24:27 51°13.878 2°55.589 5.9 352 15.3 101660 66
2004-07-13 06:24:31 51°13.886 2°55.583 6.5 354 15.3 101660 66
2004-07-13 06:24:36 51°13.896 2°55.577 7.2 345 15.3 101660 66
2004-07-13 06:24:41 51°13.905 2°55.57 7 347 15.3 101660 66
2004-07-13 06:24:48 51°13.919 2°55.56 6.2 357 15.3 101660 66
2004-07-13 06:24:52 51°13.926 2°55.555 6.9 330 15.3 101660 66
2004-07-13 06:24:57 51°13.936 2°55.548 6.7 345 15.2 101660 66
2004-07-13 06:25:02 51°13.946 2°55.542 5.4 332 15.2 101660 66
2004-07-13 06:25:08 51°13.957 2°55.534 4.9 338 15.2 101660 66
2004-07-13 06:25:12 51°13.965 2°55.529 5.3 359 15.2 101660 66
2004-07-13 06:25:18 51°13.977 2°55.521 5.2 354 15.2 101660 67
2004-07-13 06:25:22 51°13.985 2°55.516 5.5 349 15.2 101660 67
2004-07-13 06:25:28 51°13.998 2°55.509 6 345 15.2 101660 67
2004-07-13 06:25:33 51°14.008 2°55.503 6.1 335 15.2 101660 67
2004-07-13 06:25:37 51°14.016 2°55.499 6.6 333 15.2 101660 67
2004-07-13 06:25:42 51°14.027 2°55.493 6.1 358 15.2 101660 67
2004-07-13 06:25:48 51°14.04 2°55.486 6.7 356 15.2 101660 67
2004-07-13 06:25:53 51°14.05 2°55.481 8.2 347 15.2 101660 67
2004-07-13 06:25:57 51°14.059 2°55.476 7.6 345 15.3 101660 67
2004-07-13 06:26:02 51°14.069 2°55.47 6.9 345 15.3 101660 67
2004-07-13 06:26:07 51°14.08 2°55.464 6.8 349 15.3 101660 67
2004-07-13 06:26:12 51°14.09 2°55.458 7.9 357 15.3 101660 67
2004-07-13 06:26:16 51°14.099 2°55.453 8.5 347 15.2 101650 67
2004-07-13 06:26:22 51°14.112 2°55.445 8.8 345 15.2 101650 67
2004-07-13 06:26:28 51°14.126 2°55.436 8.5 347 15.2 101650 68
2004-07-13 06:26:32 51°14.135 2°55.43 9.3 345 15.2 101650 68
2004-07-13 06:26:37 51°14.146 2°55.421 8.9 341 15.2 101650 67
2004-07-13 06:26:42 51°14.158 2°55.412 8.6 344 15.2 101650 67
2004-07-13 06:26:48 51°14.172 2°55.401 9.2 343 15.2 101650 67
2004-07-13 06:26:52 51°14.181 2°55.392 8.9 347 15.2 101650 67
2004-07-13 06:26:58 51°14.194 2°55.377 9.3 349 15.2 101650 67
2004-07-13 06:27:02 51°14.202 2°55.366 9.4 348 15.2 101650 67
2004-07-13 06:27:08 51°14.215 2°55.35 9.2 346 15.2 101650 67
2004-07-13 06:27:13 51°14.225 2°55.335 9.1 351 15.2 101650 67
2004-07-13 06:27:17 51°14.233 2°55.322 9.2 351 15.2 101650 67
2004-07-13 06:27:22 51°14.243 2°55.306 8.9 355 15.2 101650 67
2004-07-13 06:27:27 51°14.253 2°55.29 9 3 15.2 101650 67
2004-07-13 06:27:32 51°14.262 2°55.272 10.3 360 15.2 101650 67
2004-07-13 06:27:36 51°14.27 2°55.257 9.5 354 15.2 101650 67
2004-07-13 06:27:42 51°14.281 2°55.235 10.7 353 15.2 101650 67
2004-07-13 06:27:46 51°14.289 2°55.22 10.5 351 15.2 101660 68
2004-07-13 06:27:52 51°14.301 2°55.197 11.6 354 15.2 101660 68
2004-07-13 06:27:57 51°14.31 2°55.176 11.1 355 15.2 101650 68
2004-07-13 06:28:02 51°14.319 2°55.156 11.6 356 15.2 101650 68
2004-07-13 06:28:08 51°14.329 2°55.131 10.7 358 15.2 101640 67
2004-07-13 06:28:13 51°14.338 2°55.11 10.6 360 15.2 101640 67
2004-07-13 06:28:17 51°14.346 2°55.093 11.1 356 15.2 101650 67
2004-07-13 06:28:22 51°14.355 2°55.072 10.9 3 15.2 101650 67
2004-07-13 06:28:28 51°14.367 2°55.046 10.1 2 15.2 101650 68
2004-07-13 06:28:32 51°14.375 2°55.029 10.6 357 15.2 101650 68
2004-07-13 06:28:36 51°14.383 2°55.012 11.3 356 15.2 101650 68
2004-07-13 06:28:42 51°14.396 2°54.986 10.8 355 15.2 101650 68
2004-07-13 06:28:48 51°14.41 2°54.961 12.1 352 15.2 101650 69
2004-07-13 06:28:53 51°14.422 2°54.94 11.8 348 15.2 101650 69
2004-07-13 06:28:57 51°14.432 2°54.923 12 350 15.2 101640 69
2004-07-13 06:29:02 51°14.445 2°54.904 11.5 345 15.2 101640 69
2004-07-13 06:29:08 51°14.461 2°54.882 11 348 15.2 101650 69
2004-07-13 06:29:12 51°14.472 2°54.867 12.1 345 15.2 101650 69
2004-07-13 06:29:18 51°14.489 2°54.846 11.6 344 15.2 101630 69
2004-07-13 06:29:22 51°14.5 2°54.831 11.8 344 15.2 101630 69
2004-07-13 06:29:28 51°14.517 2°54.81 10.9 344 15.2 101640 69
2004-07-13 06:29:33 51°14.532 2°54.793 11 344 15.2 101640 69
2004-07-13 06:29:37 51°14.544 2°54.78 11.7 347 15.2 101640 68
2004-07-13 06:29:42 51°14.559 2°54.763 11.5 347 15.2 101640 68
2004-07-13 06:29:48 51°14.576 2°54.743 11.2 346 15.2 101640 68
2004-07-13 06:29:52 51°14.588 2°54.73 11.9 347 15.2 101640 68
2004-07-13 06:29:58 51°14.606 2°54.71 13 347 15.1 101640 67
2004-07-13 06:30:02 51°14.618 2°54.695 12 344 15.1 101640 67
2004-07-13 06:30:08 51°14.635 2°54.675 10.9 346 15.2 101640 67
2004-07-13 06:30:13 51°14.649 2°54.658 11.2 345 15.2 101640 67
2004-07-13 06:30:17 51°14.661 2°54.644 10.1 345 15.2 101640 69
2004-07-13 06:30:20 51°14.67 2°54.633 11.3 344 15.2 101640 69
2004-07-13 06:30:27 51°14.691 2°54.61 11 344 15.2 101630 70
2004-07-13 06:30:32 51°14.705 2°54.592 11.8 351 15.2 101630 70
2004-07-13 06:30:36 51°14.717 2°54.578 10.1 349 15.3 101630 71
2004-07-13 06:30:42 51°14.733 2°54.558 11 350 15.3 101630 71
2004-07-13 06:30:48 51°14.751 2°54.539 11.7 347 15.3 101650 70
2004-07-13 06:30:52 51°14.763 2°54.525 11.6 345 15.3 101650 70
2004-07-13 06:30:58 51°14.78 2°54.506 12.3 347 15.3 101650 71
2004-07-13 06:31:02 51°14.792 2°54.493 11.3 347 15.3 101650 71
2004-07-13 06:31:08 51°14.81 2°54.474 10.6 348 15.3 101650 71
2004-07-13 06:31:12 51°14.822 2°54.461 11.2 347 15.3 101650 71
2004-07-13 06:31:18 51°14.84 2°54.441 13.3 351 15.2 101650 69
2004-07-13 06:31:22 51°14.852 2°54.427 12.6 349 15.2 101650 69
2004-07-13 06:31:28 51°14.869 2°54.407 11.8 347 15.2 101640 69
2004-07-13 06:31:33 51°14.884 2°54.39 11.5 357 15.2 101640 69
2004-07-13 06:31:37 51°14.895 2°54.376 12.5 355 15.2 101650 69
2004-07-13 06:31:42 51°14.91 2°54.359 12.3 355 15.2 101650 69
2004-07-13 06:31:48 51°14.927 2°54.339 12.4 351 15.2 101640 68
2004-07-13 06:31:53 51°14.941 2°54.322 12.6 354 15.2 101640 68
2004-07-13 06:31:57 51°14.953 2°54.308 11.3 355 15.2 101650 68
2004-07-13 06:32:02 51°14.967 2°54.292 11 354 15.2 101650 68
2004-07-13 06:32:05 51°14.976 2°54.282 12.2 355 15.2 101640 67
2004-07-13 06:32:13 51°15 2°54.256 11.7 353 15.2 101640 67
2004-07-13 06:32:17 51°15.011 2°54.243 12.4 351 15.2 101630 68
2004-07-13 06:32:22 51°15.026 2°54.226 12 348 15.2 101630 68
2004-07-13 06:32:27 51°15.041 2°54.21 10.8 350 15.2 101650 67
2004-07-13 06:32:33 51°15.058 2°54.189 11.3 354 15.2 101650 67
2004-07-13 06:32:37 51°15.07 2°54.176 11.6 354 15.2 101650 67
2004-07-13 06:32:42 51°15.084 2°54.159 10.6 353 15.2 101650 67
2004-07-13 06:32:48 51°15.102 2°54.138 12 354 15.2 101650 67
2004-07-13 06:32:52 51°15.113 2°54.124 10.9 348 15.2 101650 67
2004-07-13 06:32:58 51°15.131 2°54.104 11.7 348 15.2 101660 68
2004-07-13 06:33:02 51°15.143 2°54.09 11.5 350 15.2 101660 68
2004-07-13 06:33:06 51°15.154 2°54.076 11.2 349 15.2 101660 68
2004-07-13 06:33:13 51°15.175 2°54.052 11.5 346 15.2 101660 68
2004-07-13 06:33:16 51°15.183 2°54.041 10.6 343 15.2 101650 68
2004-07-13 06:33:22 51°15.201 2°54.021 11.2 343 15.2 101650 68
2004-07-13 06:33:27 51°15.215 2°54.004 10.9 345 15.2 101650 69
2004-07-13 06:33:33 51°15.233 2°53.983 11 347 15.2 101650 69
2004-07-13 06:33:37 51°15.244 2°53.969 11.8 350 15.3 101660 70
2004-07-13 06:33:42 51°15.259 2°53.952 11.5 350 15.3 101660 70
2004-07-13 06:33:48 51°15.276 2°53.931 12.1 352 15.2 101640 70
2004-07-13 06:33:53 51°15.291 2°53.913 12.2 352 15.2 101640 70
2004-07-13 06:33:57 51°15.302 2°53.899 12.5 350 15.3 101650 70
2004-07-13 06:34:02 51°15.317 2°53.881 12.4 351 15.3 101650 70
2004-07-13 06:34:08 51°15.334 2°53.86 11.9 347 15.3 101660 69
2004-07-13 06:34:12 51°15.346 2°53.846 11.8 347 15.3 101660 69
2004-07-13 06:34:16 51°15.357 2°53.832 11.4 348 15.2 101650 69
2004-07-13 06:34:22 51°15.375 2°53.81 12.1 347 15.2 101650 69
2004-07-13 06:34:28 51°15.392 2°53.789 11 348 15.3 101640 70
2004-07-13 06:34:32 51°15.403 2°53.775 10.8 347 15.3 101640 70
2004-07-13 06:34:38 51°15.421 2°53.754 11.8 350 15.2 101640 69
2004-07-13 06:34:42 51°15.432 2°53.74 11.8 346 15.2 101640 69
2004-07-13 06:34:48 51°15.45 2°53.719 11 346 15.2 101650 69
2004-07-13 06:34:52 51°15.462 2°53.706 11.9 347 15.2 101650 69
2004-07-13 06:34:57 51°15.477 2°53.691 12.5 342 15.2 101650 68
2004-07-13 06:35:02 51°15.493 2°53.676 11.7 340 15.2 101650 68
2004-07-13 06:35:08 51°15.512 2°53.659 12.6 339 15.2 101650 68
2004-07-13 06:35:13 51°15.527 2°53.646 11.3 339 15.2 101650 68
2004-07-13 06:35:16 51°15.537 2°53.638 10.9 339 15.2 101640 69
2004-07-13 06:35:22 51°15.556 2°53.621 10.5 341 15.2 101640 69
2004-07-13 06:35:28 51°15.575 2°53.605 9.8 340 15.2 101640 69
2004-07-13 06:35:33 51°15.591 2°53.592 10.6 337 15.2 101640 69
2004-07-13 06:35:37 51°15.603 2°53.582 11.2 338 15.2 101630 69
2004-07-13 06:35:42 51°15.62 2°53.569 10.5 334 15.2 101630 69
2004-07-13 06:35:47 51°15.635 2°53.555 11.4 339 15.2 101640 69
2004-07-13 06:35:52 51°15.651 2°53.542 11.3 344 15.2 101640 69
2004-07-13 06:35:56 51°15.664 2°53.531 10.2 345 15.2 101650 68
2004-07-13 06:36:02 51°15.683 2°53.514 11.4 342 15.2 101650 68
2004-07-13 06:36:08 51°15.702 2°53.497 11.3 345 15.2 101650 69
2004-07-13 06:36:13 51°15.717 2°53.483 11.2 346 15.2 101650 69
2004-07-13 06:36:18 51°15.733 2°53.469 10.9 346 15.2 101640 69
2004-07-13 06:36:22 51°15.746 2°53.458 10.6 343 15.2 101640 69
2004-07-13 06:36:28 51°15.765 2°53.441 11 346 15.2 101650 69
2004-07-13 06:36:32 51°15.777 2°53.43 10.9 339 15.2 101650 69
2004-07-13 06:36:36 51°15.79 2°53.419 11.6 342 15.2 101650 68
2004-07-13 06:36:41 51°15.806 2°53.406 11.7 340 15.2 101650 68
2004-07-13 06:36:48 51°15.828 2°53.387 10.7 336 15.2 101650 68
2004-07-13 06:36:52 51°15.841 2°53.376 9.7 334 15.2 101650 68
2004-07-13 06:36:56 51°15.854 2°53.365 12.2 344 15.2 101650 69
2004-07-13 06:37:02 51°15.873 2°53.349 10.6 338 15.2 101650 69
2004-07-13 06:37:07 51°15.889 2°53.335 11.2 336 15.2 101640 69
2004-07-13 06:37:13 51°15.908 2°53.318 11.6 337 15.2 101640 69
2004-07-13 06:37:17 51°15.921 2°53.307 11.4 342 15.2 101650 70
2004-07-13 06:37:22 51°15.937 2°53.294 11.2 335 15.2 101650 70
2004-07-13 06:37:28 51°15.956 2°53.277 12.1 340 15.2 101640 70
2004-07-13 06:37:33 51°15.972 2°53.263 12.4 342 15.2 101640 70
2004-07-13 06:37:38 51°15.988 2°53.249 11 341 15.2 101640 71
2004-07-13 06:37:42 51°16.001 2°53.237 12.2 347 15.2 101640 71
2004-07-13 06:37:45 51°16.01 2°53.229 11.5 345 15.2 101640 70
2004-07-13 06:37:53 51°16.036 2°53.206 12.2 342 15.2 101640 70
2004-07-13 06:37:58 51°16.052 2°53.192 11.3 340 15.2 101640 70
2004-07-13 06:38:02 51°16.065 2°53.181 11.7 342 15.2 101640 70
2004-07-13 06:38:08 51°16.084 2°53.165 10.9 346 15.2 101640 70
2004-07-13 06:38:13 51°16.1 2°53.151 11.3 346 15.2 101640 70
2004-07-13 06:38:17 51°16.113 2°53.14 13 348 15.2 101650 70
2004-07-13 06:38:22 51°16.129 2°53.126 12.1 350 15.2 101650 70
2004-07-13 06:38:28 51°16.148 2°53.11 11.7 347 15.3 101630 70
2004-07-13 06:38:32 51°16.161 2°53.099 11.3 345 15.3 101630 70
2004-07-13 06:38:37 51°16.177 2°53.085 12.1 349 15.2 101640 69
2004-07-13 06:38:42 51°16.193 2°53.071 11.9 348 15.2 101640 69
2004-07-13 06:38:46 51°16.205 2°53.06 12 348 15.2 101640 68
2004-07-13 06:38:52 51°16.224 2°53.044 11.7 343 15.2 101640 68
2004-07-13 06:38:56 51°16.237 2°53.033 11.4 341 15.2 101640 68
2004-07-13 06:39:02 51°16.256 2°53.017 11.3 344 15.2 101640 68
2004-07-13 06:39:07 51°16.272 2°53.005 9.7 341 15.2 101630 68
2004-07-13 06:39:12 51°16.289 2°52.992 9.8 340 15.2 101630 68
2004-07-13 06:39:18 51°16.308 2°52.978 11 343 15.2 101650 68
2004-07-13 06:39:22 51°16.322 2°52.969 9.6 340 15.2 101650 68
2004-07-13 06:39:28 51°16.342 2°52.956 10.4 343 15.2 101640 68
2004-07-13 06:39:32 51°16.355 2°52.947 10.7 342 15.2 101640 68
2004-07-13 06:39:38 51°16.375 2°52.934 11.9 345 15.2 101660 68
2004-07-13 06:39:42 51°16.388 2°52.925 10.8 345 15.2 101660 68
2004-07-13 06:39:48 51°16.408 2°52.911 11.3 343 15.2 101650 68
2004-07-13 06:39:53 51°16.424 2°52.9 12.8 337 15.2 101650 68
2004-07-13 06:39:57 51°16.437 2°52.891 11.9 337 15.2 101640 69
2004-07-13 06:40:02 51°16.453 2°52.88 11.3 338 15.2 101640 69
2004-07-13 06:40:08 51°16.473 2°52.866 11.7 336 15.2 101640 69
2004-07-13 06:40:12 51°16.486 2°52.857 11 337 15.2 101640 69
2004-07-13 06:40:17 51°16.502 2°52.845 12.2 342 15.2 101650 69
2004-07-13 06:40:22 51°16.518 2°52.833 11.3 342 15.2 101650 69
2004-07-13 06:40:28 51°16.537 2°52.82 10.4 340 15.2 101650 68
2004-07-13 06:40:33 51°16.553 2°52.808 10.2 340 15.2 101650 68
2004-07-13 06:40:36 51°16.563 2°52.802 11.3 341 15.2 101640 68
2004-07-13 06:40:42 51°16.582 2°52.788 11.2 337 15.2 101640 68
2004-07-13 06:40:47 51°16.598 2°52.778 10.1 338 15.2 101650 68
2004-07-13 06:40:52 51°16.614 2°52.766 10.1 338 15.2 101650 68
2004-07-13 06:40:56 51°16.627 2°52.757 10.5 341 15.2 101640 68
2004-07-13 06:41:02 51°16.647 2°52.744 9.5 338 15.2 101640 68
2004-07-13 06:41:08 51°16.666 2°52.73 10.2 341 15.2 101630 68
2004-07-13 06:41:12 51°16.68 2°52.721 10 340 15.2 101630 68
2004-07-13 06:41:18 51°16.699 2°52.707 10.6 340 15.2 101640 69
2004-07-13 06:41:22 51°16.712 2°52.698 10.4 338 15.2 101640 69
2004-07-13 06:41:28 51°16.732 2°52.685 9.5 339 15.2 101650 69
2004-07-13 06:41:33 51°16.748 2°52.675 11.1 344 15.2 101650 69
2004-07-13 06:41:36 51°16.758 2°52.669 11 342 15.2 101650 69
2004-07-13 06:41:42 51°16.778 2°52.657 11.5 339 15.2 101650 69
2004-07-13 06:41:46 51°16.791 2°52.649 12.3 338 15.2 101640 70
2004-07-13 06:41:52 51°16.81 2°52.638 12.4 338 15.2 101640 70
2004-07-13 06:41:56 51°16.823 2°52.631 11.8 339 15.2 101660 70
2004-07-13 06:42:02 51°16.842 2°52.619 12 333 15.2 101660 70
2004-07-13 06:42:07 51°16.859 2°52.609 11.6 335 15.2 101640 70
2004-07-13 06:42:12 51°16.875 2°52.599 11.7 337 15.2 101640 70
2004-07-13 06:42:17 51°16.891 2°52.589 12 339 15.2 101620 69
2004-07-13 06:42:22 51°16.907 2°52.579 11.4 335 15.2 101620 69
2004-07-13 06:42:28 51°16.926 2°52.567 11.1 336 15.2 101620 69
2004-07-13 06:42:33 51°16.942 2°52.557 10.6 333 15.2 101620 69
2004-07-13 06:42:37 51°16.955 2°52.548 10.9 334 15.2 101640 68
2004-07-13 06:42:42 51°16.971 2°52.538 10.5 340 15.2 101640 68
2004-07-13 06:42:48 51°16.99 2°52.526 10.5 338 15.2 101620 68
2004-07-13 06:42:52 51°17.003 2°52.518 11.5 338 15.2 101620 68
2004-07-13 06:42:57 51°17.019 2°52.508 10 332 15.2 101660 68
2004-07-13 06:43:02 51°17.035 2°52.499 10.8 334 15.2 101660 68
2004-07-13 06:43:08 51°17.055 2°52.491 8.8 333 15.2 101640 69
2004-07-13 06:43:13 51°17.072 2°52.487 9.5 331 15.2 101640 69
2004-07-13 06:43:18 51°17.089 2°52.483 10.6 336 15.2 101640 69
2004-07-13 06:43:22 51°17.103 2°52.481 10.9 333 15.2 101640 69
2004-07-13 06:43:28 51°17.124 2°52.479 10 328 15.2 101650 69
2004-07-13 06:43:33 51°17.141 2°52.476 10.4 331 15.2 101650 69
2004-07-13 06:43:37 51°17.155 2°52.476 10.2 327 15.2 101660 70
2004-07-13 06:43:42 51°17.172 2°52.474 10.4 328 15.2 101660 70
2004-07-13 06:43:47 51°17.189 2°52.473 9.7 323 15.2 101640 70
2004-07-13 06:43:53 51°17.21 2°52.472 9.9 329 15.2 101640 70
2004-07-13 06:43:58 51°17.227 2°52.47 9.8 323 15.2 101650 70
2004-07-13 06:44:02 51°17.241 2°52.469 10.2 326 15.2 101650 70
2004-07-13 06:44:08 51°17.262 2°52.467 12 332 15.2 101640 70
2004-07-13 06:44:13 51°17.279 2°52.465 10.4 336 15.2 101640 70
2004-07-13 06:44:17 51°17.293 2°52.463 9.7 328 15.2 101660 71
2004-07-13 06:44:22 51°17.31 2°52.462 9.8 334 15.2 101660 71
2004-07-13 06:44:28 51°17.33 2°52.459 9.8 332 15.3 101650 71
2004-07-13 06:44:33 51°17.348 2°52.457 9.1 328 15.3 101650 71
2004-07-13 06:44:38 51°17.365 2°52.455 11.2 336 15.2 101630 71
2004-07-13 06:44:42 51°17.379 2°52.453 10.6 329 15.2 101630 71
2004-07-13 06:44:48 51°17.399 2°52.45 9.9 326 15.2 101640 71
2004-07-13 06:44:53 51°17.416 2°52.448 10.3 330 15.2 101640 71
2004-07-13 06:44:57 51°17.43 2°52.446 11.6 328 15.2 101650 70
2004-07-13 06:45:02 51°17.447 2°52.444 10.3 332 15.2 101650 70
2004-07-13 06:45:08 51°17.468 2°52.441 10.1 339 15.3 101640 71
2004-07-13 06:45:13 51°17.485 2°52.439 11 332 15.3 101640 71
2004-07-13 06:45:17 51°17.499 2°52.437 11.4 329 15.3 101650 71
2004-07-13 06:45:22 51°17.516 2°52.435 10.7 331 15.3 101650 71
2004-07-13 06:45:28 51°17.537 2°52.433 10.5 332 15.3 101640 71
2004-07-13 06:45:33 51°17.555 2°52.433 9.8 328 15.3 101640 71
2004-07-13 06:45:37 51°17.569 2°52.432 10.4 333 15.2 101650 71
2004-07-13 06:45:42 51°17.586 2°52.432 10.5 328 15.2 101650 71
2004-07-13 06:45:48 51°17.607 2°52.432 10.3 327 15.2 101640 70
2004-07-13 06:45:53 51°17.625 2°52.433 10.2 330 15.2 101640 70
2004-07-13 06:45:57 51°17.639 2°52.433 9.5 329 15.2 101650 69
2004-07-13 06:46:02 51°17.656 2°52.433 10.3 324 15.2 101650 69
2004-07-13 06:46:07 51°17.674 2°52.433 10 329 15.2 101640 69
2004-07-13 06:46:12 51°17.691 2°52.433 12 324 15.2 101640 69
2004-07-13 06:46:18 51°17.712 2°52.433 9.7 324 15.2 101650 70
2004-07-13 06:46:22 51°17.726 2°52.433 10.8 331 15.2 101650 70
2004-07-13 06:46:28 51°17.747 2°52.434 9.9 329 15.2 101640 70
2004-07-13 06:46:33 51°17.765 2°52.434 9.9 330 15.2 101640 70
2004-07-13 06:46:37 51°17.778 2°52.434 9.6 332 15.2 101630 70
2004-07-13 06:46:41 51°17.792 2°52.434 9.9 333 15.2 101630 70
2004-07-13 06:46:48 51°17.817 2°52.433 10.7 339 15.2 101650 70
2004-07-13 06:46:53 51°17.834 2°52.433 11.4 334 15.2 101650 70
2004-07-13 06:46:58 51°17.851 2°52.432 9.6 328 15.2 101650 70
2004-07-13 06:47:02 51°17.865 2°52.432 10.2 332 15.2 101650 70
2004-07-13 06:47:08 51°17.886 2°52.432 10 330 15.2 101650 69
2004-07-13 06:47:13 51°17.903 2°52.432 9.5 328 15.2 101650 69
2004-07-13 06:47:17 51°17.917 2°52.432 11.5 334 15.2 101640 70
2004-07-13 06:47:21 51°17.931 2°52.433 10.1 336 15.2 101640 70
2004-07-13 06:47:28 51°17.955 2°52.433 9.2 332 15.2 101650 70
2004-07-13 06:47:33 51°17.972 2°52.433 10.1 333 15.2 101650 70
2004-07-13 06:47:37 51°17.986 2°52.434 10.8 328 15.2 101650 70
2004-07-13 06:47:42 51°18.003 2°52.434 8.7 330 15.2 101650 70
2004-07-13 06:47:48 51°18.023 2°52.439 11 329 15.2 101640 70
2004-07-13 06:47:52 51°18.036 2°52.442 9.5 325 15.2 101640 70
2004-07-13 06:47:58 51°18.056 2°52.451 9.6 325 15.2 101660 70
2004-07-13 06:48:02 51°18.069 2°52.456 9 319 15.2 101660 70
2004-07-13 06:48:08 51°18.089 2°52.466 8.7 323 15.2 101640 70
2004-07-13 06:48:12 51°18.102 2°52.473 8.4 43 15.2 101640 70
2004-07-13 06:48:16 51°18.114 2°52.48 8.6 326 15.2 101630 70
2004-07-13 06:48:22 51°18.134 2°52.493 8.4 321 15.2 101630 70
2004-07-13 06:48:28 51°18.153 2°52.506 7.8 319 15.2 101650 69
2004-07-13 06:48:32 51°18.166 2°52.516 7.9 319 15.2 101650 69
2004-07-13 06:48:35 51°18.176 2°52.523 8.6 323 15.2 101650 70
2004-07-13 06:48:42 51°18.198 2°52.539 8 319 15.2 101650 70
2004-07-13 06:48:48 51°18.217 2°52.553 7.5 323 15.2 101650 71
2004-07-13 06:48:52 51°18.229 2°52.562 7.9 323 15.2 101650 71
2004-07-13 06:48:57 51°18.246 2°52.574 8.3 324 15.2 101660 71
2004-07-13 06:49:02 51°18.262 2°52.585 8.9 319 15.2 101660 71
2004-07-13 06:49:08 51°18.281 2°52.598 8 319 15.2 101650 71
2004-07-13 06:49:13 51°18.297 2°52.61 7.4 41 15.2 101650 71
2004-07-13 06:49:18 51°18.313 2°52.62 9.1 316 15.2 101660 71
2004-07-13 06:49:22 51°18.326 2°52.629 7.1 325 15.2 101660 71
2004-07-13 06:49:28 51°18.345 2°52.643 8.8 322 15.2 101650 71
2004-07-13 06:49:33 51°18.361 2°52.654 9.4 328 15.2 101650 71
2004-07-13 06:49:37 51°18.374 2°52.662 8.8 332 15.2 101660 71
2004-07-13 06:49:42 51°18.39 2°52.674 9.2 325 15.2 101660 71
2004-07-13 06:49:48 51°18.41 2°52.687 9 326 15.2 101650 72
2004-07-13 06:49:53 51°18.426 2°52.698 9.7 323 15.2 101650 72
2004-07-13 06:49:57 51°18.439 2°52.707 9.6 323 15.3 101650 72
2004-07-13 06:50:02 51°18.455 2°52.718 10 322 15.3 101650 72
2004-07-13 06:50:06 51°18.468 2°52.727 10 323 15.2 101660 70
2004-07-13 06:50:13 51°18.491 2°52.742 9.6 325 15.2 101660 70
2004-07-13 06:50:18 51°18.508 2°52.754 9.7 325 15.2 101640 70
2004-07-13 06:50:21 51°18.518 2°52.76 9.4 326 15.2 101640 70
2004-07-13 06:50:28 51°18.541 2°52.776 9.6 327 15.2 101650 71
2004-07-13 06:50:32 51°18.554 2°52.784 10.3 325 15.2 101650 71
2004-07-13 06:50:38 51°18.574 2°52.798 9.4 326 15.2 101640 70
2004-07-13 06:50:42 51°18.587 2°52.806 8.4 324 15.2 101640 70
2004-07-13 06:50:48 51°18.607 2°52.82 9.2 322 15.2 101650 69
2004-07-13 06:50:53 51°18.623 2°52.832 8.5 322 15.2 101650 69
2004-07-13 06:50:57 51°18.637 2°52.84 8.9 326 15.2 101650 69
2004-07-13 06:51:02 51°18.653 2°52.852 7.9 323 15.2 101650 69
2004-07-13 06:51:07 51°18.67 2°52.863 8.7 323 15.1 101650 68
2004-07-13 06:51:13 51°18.69 2°52.876 8.4 321 15.1 101650 68
2004-07-13 06:51:17 51°18.703 2°52.885 9 324 15.1 101650 68
2004-07-13 06:51:22 51°18.72 2°52.895 8.3 326 15.1 101650 68
2004-07-13 06:51:28 51°18.739 2°52.909 7.3 320 15.2 101650 69
2004-07-13 06:51:33 51°18.755 2°52.92 8.1 320 15.2 101650 69
2004-07-13 06:51:37 51°18.768 2°52.929 7.5 322 15.2 101650 69
2004-07-13 06:51:42 51°18.785 2°52.939 7.5 322 15.2 101650 69
2004-07-13 06:51:45 51°18.795 2°52.946 8.4 324 15.1 101650 69
2004-07-13 06:51:53 51°18.821 2°52.963 8 322 15.1 101650 69
2004-07-13 06:51:57 51°18.834 2°52.971 7.1 323 15.2 101660 69
2004-07-13 06:52:02 51°18.851 2°52.982 7.4 322 15.2 101660 69
2004-07-13 06:52:08 51°18.871 2°52.995 7.4 323 15.2 101650 70
2004-07-13 06:52:12 51°18.884 2°53.004 7.5 319 15.2 101650 70
2004-07-13 06:52:17 51°18.9 2°53.014 8.6 322 15.2 101650 70
2004-07-13 06:52:22 51°18.916 2°53.025 8.8 323 15.2 101650 70
2004-07-13 06:52:28 51°18.936 2°53.039 7.5 320 15.2 101660 70
2004-07-13 06:52:32 51°18.949 2°53.047 8.1 318 15.2 101660 70
2004-07-13 06:52:38 51°18.969 2°53.06 7.7 323 15.2 101670 70
2004-07-13 06:52:42 51°18.982 2°53.068 8 320 15.2 101670 70
2004-07-13 06:52:48 51°19.002 2°53.081 8.5 327 15.2 101650 70
2004-07-13 06:52:53 51°19.018 2°53.091 8.4 319 15.2 101650 70
2004-07-13 06:52:57 51°19.031 2°53.1 8.4 315 15.2 101670 70
2004-07-13 06:53:02 51°19.047 2°53.11 8.6 320 15.2 101670 70
2004-07-13 06:53:08 51°19.067 2°53.123 9 322 15.2 101670 70
2004-07-13 06:53:13 51°19.083 2°53.133 8.4 320 15.2 101670 70
2004-07-13 06:53:18 51°19.1 2°53.144 8.6 327 15.2 101660 70
2004-07-13 06:53:21 51°19.11 2°53.15 9 321 15.2 101660 70
2004-07-13 06:53:27 51°19.129 2°53.163 9.1 321 15.2 101650 70
2004-07-13 06:53:33 51°19.149 2°53.175 8.9 320 15.2 101650 70
2004-07-13 06:53:36 51°19.159 2°53.182 9.5 322 15.2 101650 70
2004-07-13 06:53:41 51°19.175 2°53.192 8.7 321 15.2 101650 70
2004-07-13 06:53:48 51°19.198 2°53.207 9.1 324 15.2 101650 70
2004-07-13 06:53:52 51°19.212 2°53.215 9.2 319 15.2 101650 70
2004-07-13 06:53:57 51°19.227 2°53.226 8.5 316 15.2 101650 70
2004-07-13 06:54:02 51°19.244 2°53.236 9.7 323 15.2 101650 70
2004-07-13 06:54:07 51°19.26 2°53.246 8.5 318 15.2 101640 70
2004-07-13 06:54:13 51°19.28 2°53.259 8.2 318 15.2 101640 70
2004-07-13 06:54:17 51°19.293 2°53.267 9.1 319 15.2 101650 69
2004-07-13 06:54:22 51°19.31 2°53.277 10 320 15.2 101650 69
2004-07-13 06:54:28 51°19.329 2°53.291 8.1 325 15.2 101650 69
2004-07-13 06:54:30 51°19.336 2°53.295 7.7 322 15.2 101650 69
2004-07-13 06:54:38 51°19.361 2°53.312 8.4 322 15.2 101660 70
2004-07-13 06:54:42 51°19.374 2°53.32 8.3 322 15.2 101660 70
2004-07-13 06:54:48 51°19.393 2°53.332 8.3 329 15.2 101640 69
2004-07-13 06:54:52 51°19.406 2°53.34 9 325 15.2 101640 69
2004-07-13 06:54:56 51°19.419 2°53.349 8 322 15.2 101660 70
2004-07-13 06:55:02 51°19.438 2°53.361 8.2 324 15.2 101660 70
2004-07-13 06:55:07 51°19.454 2°53.37 7.8 322 15.2 101630 69
2004-07-13 06:55:10 51°19.464 2°53.377 7.5 320 15.2 101630 69
2004-07-13 06:55:18 51°19.49 2°53.393 7.5 318 15.2 101650 69
2004-07-13 06:55:22 51°19.503 2°53.401 7.5 319 15.2 101650 69
2004-07-13 06:55:28 51°19.523 2°53.413 8.3 315 15.1 101660 68
2004-07-13 06:55:32 51°19.536 2°53.423 7.1 315 15.1 101660 68
2004-07-13 06:55:36 51°19.549 2°53.432 7.6 314 15.1 101650 68
2004-07-13 06:55:42 51°19.569 2°53.445 7 312 15.1 101650 68
2004-07-13 06:55:47 51°19.585 2°53.456 7.5 315 15.1 101650 69
2004-07-13 06:55:50 51°19.595 2°53.463 8 42 15.1 101650 69
2004-07-13 06:55:58 51°19.62 2°53.482 8.3 321 15.2 101650 69
2004-07-13 06:56:02 51°19.633 2°53.491 8.7 324 15.2 101650 69
2004-07-13 06:56:08 51°19.653 2°53.505 7.6 332 15.2 101660 70
2004-07-13 06:56:13 51°19.668 2°53.516 9.3 325 15.2 101660 70
2004-07-13 06:56:16 51°19.678 2°53.524 9.4 327 15.2 101660 70
2004-07-13 06:56:21 51°19.694 2°53.535 7.9 326 15.2 101660 70
2004-07-13 06:56:28 51°19.717 2°53.551 8.8 324 15.2 101660 71
2004-07-13 06:56:32 51°19.729 2°53.561 8.5 322 15.2 101660 71
2004-07-13 06:56:37 51°19.746 2°53.573 9.9 331 15.2 101650 71
2004-07-13 06:56:42 51°19.761 2°53.584 9 318 15.2 101650 71
2004-07-13 06:56:48 51°19.781 2°53.598 9 324 15.2 101660 70
2004-07-13 06:56:52 51°19.794 2°53.607 8.3 318 15.2 101660 70
2004-07-13 06:56:57 51°19.81 2°53.618 7.6 316 15.2 101650 70
2004-07-13 06:57:01 51°19.823 2°53.627 8.3 327 15.2 101650 70
2004-07-13 06:57:08 51°19.845 2°53.643 8.6 328 15.2 101650 69
2004-07-13 06:57:12 51°19.858 2°53.652 7.9 325 15.2 101650 69
2004-07-13 06:57:17 51°19.874 2°53.664 8.4 325 15.2 101650 69
2004-07-13 06:57:22 51°19.891 2°53.675 7.6 326 15.2 101650 69
2004-07-13 06:57:27 51°19.907 2°53.687 7.1 323 15.2 101650 69
2004-07-13 06:57:32 51°19.923 2°53.698 7.9 323 15.2 101650 69
2004-07-13 06:57:38 51°19.942 2°53.712 7.4 324 15.1 101650 69
2004-07-13 06:57:42 51°19.956 2°53.722 6.8 320 15.1 101650 69
2004-07-13 06:57:48 51°19.975 2°53.736 7.8 324 15.1 101650 69
2004-07-13 06:57:53 51°19.991 2°53.747 7.5 327 15.1 101650 69
2004-07-13 06:57:57 51°20.004 2°53.756 7 322 15.2 101660 69
2004-07-13 06:58:02 51°20.02 2°53.768 8.4 329 15.2 101660 69
2004-07-13 06:58:07 51°20.036 2°53.78 8.1 329 15.2 101650 70
2004-07-13 06:58:13 51°20.055 2°53.794 7.7 328 15.2 101650 70
2004-07-13 06:58:17 51°20.068 2°53.804 8.6 325 15.2 101650 70
2004-07-13 06:58:22 51°20.085 2°53.816 8.5 333 15.2 101650 70
2004-07-13 06:58:28 51°20.104 2°53.83 9.1 330 15.2 101660 70
2004-07-13 06:58:33 51°20.121 2°53.841 8.3 330 15.2 101660 70
2004-07-13 06:58:35 51°20.127 2°53.846 8.6 331 15.2 101660 70
2004-07-13 06:58:42 51°20.15 2°53.862 8.5 328 15.2 101660 70
2004-07-13 06:58:48 51°20.169 2°53.876 8 327 15.2 101650 70
2004-07-13 06:58:52 51°20.182 2°53.885 7.3 324 15.2 101650 70
2004-07-13 06:58:56 51°20.196 2°53.894 8.4 329 15.2 101640 69
2004-07-13 06:59:00 51°20.208 2°53.904 8.1 330 15.2 101640 69
2004-07-13 06:59:07 51°20.231 2°53.919 7.7 324 15.2 101660 69
2004-07-13 06:59:13 51°20.251 2°53.933 8.7 327 15.2 101660 69
2004-07-13 06:59:17 51°20.264 2°53.942 9 327 15.2 101650 69
2004-07-13 06:59:22 51°20.28 2°53.953 9.7 326 15.2 101650 69
2004-07-13 06:59:28 51°20.3 2°53.967 9.1 321 15.1 101640 69
2004-07-13 06:59:33 51°20.316 2°53.979 8.5 324 15.1 101640 69
2004-07-13 06:59:37 51°20.33 2°53.988 9.1 316 15.2 101650 70
2004-07-13 06:59:42 51°20.346 2°54 8.4 316 15.2 101650 70
2004-07-13 06:59:47 51°20.362 2°54.011 8.8 324 15.2 101650 70
2004-07-13 06:59:52 51°20.378 2°54.023 8.4 320 15.2 101650 70
2004-07-13 06:59:56 51°20.391 2°54.033 8.4 319 15.2 101650 70
2004-07-13 07:00:02 51°20.41 2°54.046 8.2 324 15.2 101650 70
2004-07-13 07:00:08 51°20.429 2°54.059 8 310 15.2 101640 69
2004-07-13 07:00:13 51°20.445 2°54.071 8.2 316 15.2 101640 69
2004-07-13 07:00:16 51°20.454 2°54.077 7.2 320 15.2 101650 70
2004-07-13 07:00:22 51°20.473 2°54.091 8.5 317 15.2 101650 70
2004-07-13 07:00:28 51°20.492 2°54.104 7.7 318 15.2 101660 69
2004-07-13 07:00:32 51°20.504 2°54.113 7.8 315 15.2 101660 69
2004-07-13 07:00:35 51°20.513 2°54.119 7.7 318 15.2 101650 69
2004-07-13 07:00:42 51°20.536 2°54.135 7.2 321 15.2 101650 69
2004-07-13 07:00:48 51°20.554 2°54.149 8.4 316 15.2 101680 70
2004-07-13 07:00:53 51°20.57 2°54.16 8.1 321 15.2 101680 70
2004-07-13 07:00:57 51°20.583 2°54.169 8.4 326 15.2 101660 69
2004-07-13 07:01:02 51°20.599 2°54.181 9.3 325 15.2 101660 69
2004-07-13 07:01:08 51°20.619 2°54.195 8.7 324 15.2 101670 69
2004-07-13 07:01:13 51°20.635 2°54.206 9.7 326 15.2 101670 69
2004-07-13 07:01:17 51°20.648 2°54.215 8.7 325 15.2 101640 69
2004-07-13 07:01:22 51°20.664 2°54.228 8.9 323 15.2 101640 69
2004-07-13 07:01:28 51°20.684 2°54.242 8.8 318 15.2 101650 70
2004-07-13 07:01:32 51°20.697 2°54.252 9.3 316 15.2 101650 70
2004-07-13 07:01:37 51°20.713 2°54.263 8.5 317 15.2 101650 69
2004-07-13 07:01:42 51°20.73 2°54.275 8.1 312 15.2 101650 69
2004-07-13 07:01:48 51°20.749 2°54.289 9.1 318 15.2 101640 69
2004-07-13 07:01:53 51°20.765 2°54.3 8.6 227 15.2 101640 69
2004-07-13 07:01:57 51°20.778 2°54.308 9.2 41 15.2 101650 69
2004-07-13 07:02:02 51°20.793 2°54.32 8.4 42 15.2 101650 69
2004-07-13 07:02:06 51°20.806 2°54.329 8.1 228 15.2 101660 69
2004-07-13 07:02:13 51°20.828 2°54.346 8.5 316 15.2 101660 69
2004-07-13 07:02:17 51°20.841 2°54.354 8 321 15.2 101650 69
2004-07-13 07:02:22 51°20.857 2°54.366 8.4 321 15.2 101650 69
2004-07-13 07:02:28 51°20.877 2°54.38 8.3 332 15.2 101630 68
2004-07-13 07:02:33 51°20.893 2°54.393 9.7 322 15.2 101630 68
2004-07-13 07:02:36 51°20.903 2°54.399 9.5 319 15.2 101660 69
2004-07-13 07:02:42 51°20.922 2°54.413 9 322 15.2 101660 69
2004-07-13 07:02:48 51°20.941 2°54.427 10.5 324 15.2 101660 70
2004-07-13 07:02:52 51°20.955 2°54.436 10 327 15.2 101660 70
2004-07-13 07:02:55 51°20.965 2°54.443 8.7 322 15.2 101650 70
2004-07-13 07:03:02 51°20.987 2°54.46 9.3 325 15.2 101650 70
2004-07-13 07:03:05 51°20.997 2°54.467 8.7 324 15.2 101650 69
2004-07-13 07:03:13 51°21.022 2°54.486 8.7 324 15.2 101650 69
2004-07-13 07:03:17 51°21.035 2°54.496 9.5 321 15.2 101630 70
2004-07-13 07:03:22 51°21.051 2°54.508 8.7 319 15.2 101630 70
2004-07-13 07:03:28 51°21.07 2°54.521 9.3 324 15.2 101640 69
2004-07-13 07:03:33 51°21.086 2°54.533 9.3 326 15.2 101640 69
2004-07-13 07:03:36 51°21.096 2°54.54 7.4 315 15.2 101660 69
2004-07-13 07:03:42 51°21.115 2°54.554 8.7 42 15.2 101660 69
2004-07-13 07:03:48 51°21.134 2°54.567 8 319 15.2 101640 68
2004-07-13 07:03:53 51°21.15 2°54.579 8.4 317 15.2 101640 68
2004-07-13 07:03:57 51°21.163 2°54.588 9.1 321 15.2 101650 69
2004-07-13 07:04:02 51°21.179 2°54.6 9.3 319 15.2 101650 69
2004-07-13 07:04:08 51°21.198 2°54.614 9 318 15.2 101670 69
2004-07-13 07:04:12 51°21.211 2°54.623 8.7 317 15.2 101670 69
2004-07-13 07:04:18 51°21.23 2°54.637 9.3 318 15.2 101660 70
2004-07-13 07:04:23 51°21.247 2°54.649 9.7 326 15.2 101660 70
2004-07-13 07:04:28 51°21.263 2°54.662 9.6 325 15.2 101640 69
2004-07-13 07:04:32 51°21.276 2°54.671 9.4 322 15.2 101640 69
2004-07-13 07:04:36 51°21.289 2°54.68 9.1 327 15.2 101640 69
2004-07-13 07:04:42 51°21.308 2°54.695 8.7 322 15.2 101640 69
2004-07-13 07:04:48 51°21.327 2°54.709 8.4 322 15.2 101640 70
2004-07-13 07:04:53 51°21.343 2°54.72 8.6 321 15.2 101640 70
2004-07-13 07:04:57 51°21.356 2°54.73 7.5 322 15.2 101640 70
2004-07-13 07:05:02 51°21.373 2°54.742 7.7 327 15.2 101640 70
2004-07-13 07:05:08 51°21.392 2°54.757 8.4 326 15.2 101660 69
2004-07-13 07:05:13 51°21.408 2°54.77 8.3 321 15.2 101660 69
2004-07-13 07:05:17 51°21.421 2°54.781 8.5 322 15.2 101660 69
2004-07-13 07:05:22 51°21.437 2°54.794 8.4 322 15.2 101660 69
2004-07-13 07:05:27 51°21.453 2°54.806 8 318 15.2 101660 69
2004-07-13 07:05:33 51°21.472 2°54.822 7.9 316 15.2 101660 69
2004-07-13 07:05:37 51°21.485 2°54.832 8.4 324 15.2 101640 70
2004-07-13 07:05:43 51°21.503 2°54.848 8 323 15.2 101640 70
2004-07-13 07:05:48 51°21.519 2°54.86 9.7 326 15.2 101650 69
2004-07-13 07:05:53 51°21.535 2°54.873 9.6 332 15.2 101650 69
2004-07-13 07:05:58 51°21.551 2°54.886 10.7 329 15.2 101650 69
2004-07-13 07:06:03 51°21.567 2°54.899 10.3 330 15.2 101650 69
2004-07-13 07:06:08 51°21.583 2°54.912 10.1 331 15.2 101660 70
2004-07-13 07:06:11 51°21.592 2°54.921 9.9 329 15.2 101660 70
2004-07-13 07:06:16 51°21.609 2°54.934 9.1 327 15.2 101640 70
2004-07-13 07:06:21 51°21.625 2°54.948 9.4 323 15.2 101640 70
2004-07-13 07:06:28 51°21.648 2°54.967 9.9 329 15.2 101640 69
2004-07-13 07:06:33 51°21.664 2°54.98 9.7 327 15.2 101640 69
2004-07-13 07:06:37 51°21.676 2°54.99 9 324 15.2 101630 69
2004-07-13 07:06:42 51°21.693 2°55.003 8.5 324 15.2 101630 69
2004-07-13 07:06:48 51°21.712 2°55.018 9.2 328 15.2 101660 69
2004-07-13 07:06:53 51°21.728 2°55.031 9.1 328 15.2 101660 69
2004-07-13 07:06:56 51°21.738 2°55.039 9.9 326 15.1 101640 68
2004-07-13 07:07:02 51°21.756 2°55.055 9.8 329 15.1 101640 68
2004-07-13 07:07:08 51°21.775 2°55.071 9.5 332 15.1 101640 68
2004-07-13 07:07:13 51°21.792 2°55.083 9.7 333 15.1 101640 68
2004-07-13 07:07:15 51°21.798 2°55.089 10 330 15.2 101640 68
2004-07-13 07:07:26 51°21.834 2°55.117 11 331 15.1 101630 68
2004-07-13 07:07:32 51°21.854 2°55.132 8.4 335 15.1 101630 68
2004-07-13 07:07:37 51°21.87 2°55.144 7.5 329 15.1 101650 68
2004-07-13 07:07:41 51°21.883 2°55.154 7.6 329 15.1 101650 68
2004-07-13 07:07:45 51°21.896 2°55.164 8.3 321 15.1 101640 68
2004-07-13 07:07:52 51°21.919 2°55.181 7.9 328 15.1 101640 68
2004-07-13 07:07:57 51°21.936 2°55.193 8.4 329 15.1 101640 67
2004-07-13 07:08:02 51°21.952 2°55.205 9.4 327 15.1 101640 67
2004-07-13 07:08:06 51°21.965 2°55.214 10.6 329 15.1 101660 67
2004-07-13 07:08:10 51°21.978 2°55.224 10.1 334 15.1 101660 67
2004-07-13 07:08:16 51°21.998 2°55.239 11.1 332 15.1 101650 68
2004-07-13 07:08:21 51°22.015 2°55.251 9.7 335 15.1 101650 68
2004-07-13 07:08:25 51°22.027 2°55.261 9.3 328 15.2 101650 69
2004-07-13 07:08:32 51°22.05 2°55.278 9.5 331 15.2 101650 69
2004-07-13 07:08:35 51°22.059 2°55.285 10.8 332 15.2 101640 69
2004-07-13 07:08:42 51°22.082 2°55.302 10.1 333 15.2 101640 69
2004-07-13 07:08:46 51°22.095 2°55.311 9.5 330 15.2 101630 69
2004-07-13 07:08:52 51°22.115 2°55.325 9.6 334 15.2 101630 69
2004-07-13 07:08:57 51°22.131 2°55.337 9.3 336 15.2 101640 68
2004-07-13 07:09:02 51°22.147 2°55.349 9.8 328 15.2 101640 68
2004-07-13 07:09:06 51°22.16 2°55.358 9.5 333 15.1 101650 68
2004-07-13 07:09:12 51°22.18 2°55.373 10.9 328 15.1 101650 68
2004-07-13 07:09:17 51°22.196 2°55.385 9.5 325 15.1 101640 68
2004-07-13 07:09:22 51°22.212 2°55.397 8.7 333 15.1 101640 68
2004-07-13 07:09:27 51°22.228 2°55.409 9.2 334 15.1 101640 68
2004-07-13 07:09:32 51°22.244 2°55.421 9.9 329 15.1 101640 68
2004-07-13 07:09:36 51°22.258 2°55.431 10.1 330 15.2 101660 68
2004-07-13 07:09:41 51°22.274 2°55.444 9.8 331 15.2 101660 68
2004-07-13 07:09:45 51°22.287 2°55.453 9.1 332 15.2 101640 68
2004-07-13 07:09:52 51°22.31 2°55.47 10 331 15.2 101640 68
2004-07-13 07:09:57 51°22.326 2°55.483 9.7 323 15.2 101640 69
2004-07-13 07:10:01 51°22.339 2°55.492 9 329 15.2 101640 69
2004-07-13 07:10:06 51°22.356 2°55.505 10.5 336 15.2 101630 68
2004-07-13 07:10:12 51°22.375 2°55.519 10.4 340 15.2 101630 68
2004-07-13 07:10:17 51°22.392 2°55.532 10.3 335 15.2 101650 68
2004-07-13 07:10:22 51°22.408 2°55.544 9.7 332 15.2 101650 68
2004-07-13 07:10:26 51°22.421 2°55.554 10.6 334 15.2 101650 69
2004-07-13 07:10:32 51°22.441 2°55.568 9.7 336 15.2 101650 69
2004-07-13 07:10:37 51°22.457 2°55.581 10.8 336 15.2 101630 69
2004-07-13 07:10:42 51°22.473 2°55.592 9.6 339 15.2 101630 69
2004-07-13 07:10:46 51°22.486 2°55.602 10.2 335 15.2 101650 68
2004-07-13 07:10:52 51°22.506 2°55.617 9.9 339 15.2 101650 68
2004-07-13 07:10:57 51°22.522 2°55.63 9.2 335 15.2 101640 68
2004-07-13 07:11:02 51°22.539 2°55.642 9 335 15.2 101640 68
2004-07-13 07:11:06 51°22.552 2°55.652 9.4 339 15.2 101640 68
2004-07-13 07:11:11 51°22.568 2°55.664 9.3 337 15.2 101640 68
2004-07-13 07:11:16 51°22.585 2°55.676 10.7 340 15.1 101650 67
2004-07-13 07:11:21 51°22.601 2°55.689 11.3 339 15.1 101650 67
2004-07-13 07:11:25 51°22.614 2°55.698 9.4 334 15.1 101650 67
2004-07-13 07:11:32 51°22.636 2°55.715 9.7 332 15.1 101650 67
2004-07-13 07:11:37 51°22.653 2°55.727 10 329 15.1 101660 68
2004-07-13 07:11:41 51°22.666 2°55.737 9.3 333 15.1 101660 68
2004-07-13 07:11:46 51°22.682 2°55.748 8.5 336 15.1 101630 67
2004-07-13 07:11:52 51°22.702 2°55.764 8.8 334 15.1 101630 67
2004-07-13 07:11:56 51°22.715 2°55.773 8.6 334 15.1 101640 67
2004-07-13 07:12:01 51°22.731 2°55.785 9.5 336 15.1 101640 67
2004-07-13 07:12:05 51°22.744 2°55.795 8.3 332 15.1 101650 67
2004-07-13 07:12:12 51°22.767 2°55.811 9 327 15.1 101650 67
2004-07-13 07:12:15 51°22.777 2°55.819 9.9 333 15.1 101670 67
2004-07-13 07:12:22 51°22.8 2°55.836 8.5 338 15.1 101670 67
2004-07-13 07:12:26 51°22.813 2°55.846 10.2 332 15.1 101650 67
2004-07-13 07:12:32 51°22.832 2°55.861 10.1 336 15.1 101650 67
2004-07-13 07:12:35 51°22.842 2°55.869 9.3 332 15.1 101640 67
2004-07-13 07:12:42 51°22.865 2°55.886 9.5 327 15.1 101640 67
2004-07-13 07:12:46 51°22.878 2°55.895 10.3 329 15.1 101650 68
2004-07-13 07:12:52 51°22.897 2°55.91 8.7 328 15.1 101650 68
2004-07-13 07:12:56 51°22.91 2°55.92 9.2 331 15.1 101630 68
2004-07-13 07:13:01 51°22.926 2°55.932 8.9 327 15.1 101630 68
2004-07-13 07:13:06 51°22.942 2°55.944 9.1 327 15.1 101650 67
2004-07-13 07:13:12 51°22.961 2°55.959 9.5 329 15.1 101650 67
2004-07-13 07:13:17 51°22.978 2°55.972 9 328 15.1 101630 68
2004-07-13 07:13:22 51°22.994 2°55.985 9.2 324 15.1 101630 68
2004-07-13 07:13:26 51°23.007 2°55.995 10.5 331 15.1 101650 68
2004-07-13 07:13:32 51°23.026 2°56.01 10.2 330 15.1 101650 68
2004-07-13 07:13:37 51°23.043 2°56.023 10 334 15.1 101640 68
2004-07-13 07:13:42 51°23.059 2°56.035 9.1 337 15.1 101640 68
2004-07-13 07:13:46 51°23.072 2°56.045 10.3 333 15.1 101650 68
2004-07-13 07:13:52 51°23.092 2°56.06 9.6 331 15.1 101650 68
2004-07-13 07:13:56 51°23.105 2°56.07 10.3 335 15.2 101640 68
2004-07-13 07:14:00 51°23.118 2°56.081 9.6 338 15.2 101640 68
2004-07-13 07:14:04 51°23.131 2°56.09 9.1 336 15.2 101640 69
2004-07-13 07:14:12 51°23.158 2°56.11 9.6 338 15.2 101640 69
2004-07-13 07:14:17 51°23.174 2°56.123 8.6 335 15.2 101640 68
2004-07-13 07:14:22 51°23.19 2°56.135 9 332 15.2 101640 68
2004-07-13 07:14:26 51°23.203 2°56.145 9.5 334 15.1 101630 67
2004-07-13 07:14:32 51°23.223 2°56.16 10.1 334 15.1 101630 67
2004-07-13 07:14:37 51°23.239 2°56.172 9.8 334 15.1 101640 68
2004-07-13 07:14:40 51°23.249 2°56.18 10.2 324 15.1 101640 68
2004-07-13 07:14:45 51°23.265 2°56.192 10.5 335 15.1 101640 68
2004-07-13 07:14:52 51°23.288 2°56.21 9.8 328 15.1 101640 68
2004-07-13 07:14:57 51°23.305 2°56.223 9.8 335 15.2 101630 68
2004-07-13 07:15:02 51°23.321 2°56.236 10.6 329 15.2 101630 68
2004-07-13 07:15:06 51°23.334 2°56.246 7.9 331 15.2 101650 69
2004-07-13 07:15:12 51°23.353 2°56.261 9.5 335 15.2 101650 69
2004-07-13 07:15:17 51°23.369 2°56.273 9.9 333 15.2 101640 69
2004-07-13 07:15:22 51°23.385 2°56.285 10.3 337 15.2 101640 69
2004-07-13 07:15:24 51°23.392 2°56.29 9.8 338 15.2 101630 68
2004-07-13 07:15:32 51°23.418 2°56.308 11.3 336 15.2 101630 68
2004-07-13 07:15:37 51°23.435 2°56.32 9.3 331 15.2 101660 68
2004-07-13 07:15:42 51°23.451 2°56.331 9.1 338 15.2 101660 68
2004-07-13 07:15:46 51°23.465 2°56.34 9.3 336 15.1 101630 68
2004-07-13 07:15:52 51°23.485 2°56.354 9.1 339 15.1 101630 68
2004-07-13 07:15:55 51°23.495 2°56.361 10.1 338 15.1 101640 67
2004-07-13 07:16:02 51°23.518 2°56.377 9.3 339 15.1 101640 67
2004-07-13 07:16:06 51°23.531 2°56.386 9.1 340 15.2 101650 68
2004-07-13 07:16:12 51°23.551 2°56.401 9.5 339 15.2 101650 68
2004-07-13 07:16:17 51°23.568 2°56.412 9.8 339 15.1 101640 68
2004-07-13 07:16:22 51°23.584 2°56.424 10 338 15.1 101640 68
2004-07-13 07:16:26 51°23.597 2°56.433 9.7 335 15.1 101640 68
2004-07-13 07:16:32 51°23.617 2°56.446 8.7 334 15.1 101640 68
2004-07-13 07:16:36 51°23.63 2°56.456 9.2 334 15.1 101650 67
2004-07-13 07:16:42 51°23.65 2°56.469 8.8 338 15.1 101650 67
2004-07-13 07:16:46 51°23.663 2°56.478 9 342 15.1 101670 67
2004-07-13 07:16:52 51°23.683 2°56.492 8.5 339 15.1 101670 67
2004-07-13 07:16:56 51°23.696 2°56.501 8.5 342 15.1 101650 67
2004-07-13 07:17:02 51°23.717 2°56.514 8.7 341 15.1 101650 67
2004-07-13 07:17:06 51°23.73 2°56.524 9.2 340 15.1 101650 68
2004-07-13 07:17:12 51°23.75 2°56.538 8.8 337 15.1 101650 68
2004-07-13 07:17:16 51°23.763 2°56.547 8.3 335 15.1 101650 68
2004-07-13 07:17:21 51°23.78 2°56.559 8.7 337 15.1 101650 68
2004-07-13 07:17:25 51°23.793 2°56.568 9.8 340 15.1 101650 67
2004-07-13 07:17:31 51°23.813 2°56.583 9.5 335 15.1 101650 67
2004-07-13 07:17:36 51°23.829 2°56.594 8.8 337 15.1 101650 68
2004-07-13 07:17:40 51°23.842 2°56.603 8.8 336 15.1 101650 68
2004-07-13 07:17:45 51°23.859 2°56.614 9.1 337 15.1 101650 68
2004-07-13 07:17:52 51°23.881 2°56.631 9.7 336 15.1 101650 68
2004-07-13 07:17:57 51°23.897 2°56.642 10.7 338 15.1 101640 69
2004-07-13 07:18:02 51°23.913 2°56.654 10 336 15.1 101640 69
2004-07-13 07:18:05 51°23.923 2°56.66 9.6 343 15.1 101660 68
2004-07-13 07:18:12 51°23.946 2°56.676 10.4 342 15.1 101660 68
2004-07-13 07:18:17 51°23.962 2°56.688 8.5 339 15.1 101640 69
2004-07-13 07:18:21 51°23.975 2°56.697 9.1 336 15.1 101640 69
2004-07-13 07:18:26 51°23.991 2°56.708 9.1 339 15.1 101640 68
2004-07-13 07:18:32 51°24.011 2°56.721 8.3 341 15.1 101640 68
2004-07-13 07:18:36 51°24.024 2°56.731 8.6 341 15.1 101640 67
2004-07-13 07:18:42 51°24.043 2°56.745 8.3 340 15.1 101640 67
2004-07-13 07:18:46 51°24.056 2°56.754 9.2 338 15.1 101650 67
2004-07-13 07:18:52 51°24.075 2°56.767 9.4 341 15.1 101650 67
2004-07-13 07:18:56 51°24.088 2°56.777 9.4 334 15.1 101650 68
2004-07-13 07:18:59 51°24.098 2°56.783 9 333 15.1 101650 68
2004-07-13 07:19:06 51°24.121 2°56.799 9.8 336 15.1 101650 68
2004-07-13 07:19:12 51°24.14 2°56.813 8.7 339 15.1 101650 68
2004-07-13 07:19:17 51°24.156 2°56.824 8.6 333 15.1 101660 69
2004-07-13 07:19:21 51°24.17 2°56.834 8.5 337 15.1 101660 69
2004-07-13 07:19:25 51°24.183 2°56.843 7.9 332 15.1 101650 69
2004-07-13 07:19:32 51°24.205 2°56.858 8.5 338 15.1 101650 69
2004-07-13 07:19:37 51°24.221 2°56.87 9.2 341 15.1 101640 68
2004-07-13 07:19:41 51°24.234 2°56.878 9.1 341 15.1 101640 68
2004-07-13 07:19:46 51°24.25 2°56.89 9.8 341 15.1 101630 68
2004-07-13 07:19:52 51°24.27 2°56.904 9.8 343 15.1 101630 68
2004-07-13 07:19:57 51°24.285 2°56.916 8.5 339 15.1 101650 69
2004-07-13 07:20:02 51°24.302 2°56.927 8.4 340 15.1 101650 69
2004-07-13 07:20:06 51°24.315 2°56.936 8.2 341 15.1 101650 69
2004-07-13 07:20:11 51°24.33 2°56.948 7 337 15.1 101650 69
2004-07-13 07:20:16 51°24.346 2°56.96 9.3 342 15.1 101640 69
2004-07-13 07:20:22 51°24.365 2°56.973 8 339 15.1 101640 69
2004-07-13 07:20:26 51°24.378 2°56.982 8.7 338 15.1 101650 68
2004-07-13 07:20:32 51°24.397 2°56.996 7.8 341 15.1 101650 68
2004-07-13 07:20:36 51°24.41 2°57.006 9.2 340 15.1 101660 68
2004-07-13 07:20:41 51°24.426 2°57.016 7.9 342 15.1 101660 68
2004-07-13 07:20:45 51°24.439 2°57.026 8.6 341 15.1 101640 68
2004-07-13 07:20:52 51°24.462 2°57.042 7.5 333 15.1 101640 68
2004-07-13 07:20:57 51°24.478 2°57.054 8.2 342 15.1 101650 68
2004-07-13 07:21:02 51°24.494 2°57.066 8.1 340 15.1 101650 68
2004-07-13 07:21:05 51°24.503 2°57.072 6.9 331 15 101650 69
2004-07-13 07:21:16 51°24.538 2°57.097 6.7 339 15.1 101660 68
2004-07-13 07:21:21 51°24.554 2°57.108 8.3 338 15.1 101660 68
2004-07-13 07:21:25 51°24.567 2°57.117 7.3 341 15 101670 68
2004-07-13 07:21:30 51°24.583 2°57.129 7.2 333 15 101670 68
2004-07-13 07:21:36 51°24.602 2°57.143 6.7 337 15 101650 69
2004-07-13 07:21:40 51°24.615 2°57.153 9 339 15 101650 69
2004-07-13 07:21:45 51°24.631 2°57.163 9.2 337 15.1 101660 69
2004-07-13 07:21:50 51°24.647 2°57.176 7.9 341 15.1 101660 69
2004-07-13 07:21:55 51°24.663 2°57.186 8.7 338 15.1 101650 69
2004-07-13 07:22:01 51°24.682 2°57.2 9.2 340 15.1 101650 69
2004-07-13 07:22:05 51°24.695 2°57.209 9 339 15.1 101650 70
2004-07-13 07:22:10 51°24.711 2°57.22 9.3 338 15.1 101650 70
2004-07-13 07:22:15 51°24.728 2°57.231 9.3 340 15.1 101640 70
2004-07-13 07:22:20 51°24.744 2°57.243 9.2 333 15.1 101640 70
2004-07-13 07:22:24 51°24.757 2°57.252 9.4 338 15.1 101640 70
2004-07-13 07:22:30 51°24.776 2°57.265 8.7 340 15.1 101640 70
2004-07-13 07:22:36 51°24.795 2°57.278 8.5 338 15.1 101650 69
2004-07-13 07:22:41 51°24.812 2°57.29 7.9 339 15.1 101650 69
2004-07-13 07:22:45 51°24.825 2°57.298 8.3 340 15.1 101660 69
2004-07-13 07:22:49 51°24.838 2°57.307 9.5 340 15.1 101660 69
2004-07-13 07:22:56 51°24.861 2°57.322 9.4 339 15.1 101640 69
2004-07-13 07:23:01 51°24.878 2°57.334 8.4 333 15.1 101640 69
2004-07-13 07:23:05 51°24.89 2°57.343 8.5 335 15.1 101650 69
2004-07-13 07:23:10 51°24.907 2°57.354 7.8 337 15.1 101650 69
2004-07-13 07:23:16 51°24.927 2°57.367 7.4 337 15.1 101650 69
2004-07-13 07:23:20 51°24.94 2°57.376 7.9 336 15.1 101650 69
2004-07-13 07:23:25 51°24.957 2°57.387 6.5 344 15.1 101650 69
2004-07-13 07:23:30 51°24.973 2°57.399 7.5 336 15.1 101650 69
2004-07-13 07:23:36 51°24.993 2°57.412 7.5 346 15 101640 69
2004-07-13 07:23:40 51°25.007 2°57.421 9.1 337 15 101640 69
2004-07-13 07:23:45 51°25.023 2°57.432 9.2 342 15 101650 69
2004-07-13 07:23:50 51°25.04 2°57.444 9.4 336 15 101650 69
2004-07-13 07:23:56 51°25.06 2°57.458 9.6 338 15.1 101660 69
2004-07-13 07:23:59 51°25.069 2°57.464 11.2 340 15.1 101660 69
2004-07-13 07:24:06 51°25.092 2°57.481 10.2 337 15.1 101660 70
2004-07-13 07:24:09 51°25.102 2°57.488 9.7 339 15.1 101660 70
2004-07-13 07:24:16 51°25.125 2°57.504 9.6 335 15.1 101660 70
2004-07-13 07:24:21 51°25.142 2°57.515 9.4 340 15.1 101660 70
2004-07-13 07:24:25 51°25.155 2°57.524 9.3 337 15.1 101660 70
2004-07-13 07:24:30 51°25.171 2°57.535 8.9 333 15.1 101660 70
2004-07-13 07:24:36 51°25.19 2°57.549 8.1 338 15.1 101640 70
2004-07-13 07:24:41 51°25.206 2°57.561 9 329 15.1 101640 70
2004-07-13 07:24:45 51°25.219 2°57.569 8.2 329 15.1 101650 69
2004-07-13 07:24:50 51°25.235 2°57.581 8.3 333 15.1 101650 69
2004-07-13 07:24:56 51°25.254 2°57.594 8.3 334 15 101670 69
2004-07-13 07:25:00 51°25.268 2°57.603 8.2 333 15 101670 69
2004-07-13 07:25:05 51°25.284 2°57.614 7.9 336 15 101660 68
2004-07-13 07:25:10 51°25.3 2°57.625 7.7 335 15 101660 68
2004-07-13 07:25:16 51°25.32 2°57.639 8.5 334 15 101650 68
2004-07-13 07:25:20 51°25.333 2°57.648 9.3 337 15 101650 68
2004-07-13 07:25:25 51°25.35 2°57.659 9.6 332 15 101650 68
2004-07-13 07:25:30 51°25.366 2°57.67 9.3 335 15 101650 68
2004-07-13 07:25:33 51°25.376 2°57.677 9.7 335 15 101660 68
2004-07-13 07:25:41 51°25.402 2°57.696 8.5 334 15 101660 68
2004-07-13 07:25:46 51°25.419 2°57.707 8.4 336 15 101650 69
2004-07-13 07:25:50 51°25.432 2°57.717 8.3 335 15 101650 69
2004-07-13 07:25:56 51°25.452 2°57.73 8.5 333 15 101650 68
2004-07-13 07:26:00 51°25.465 2°57.739 8.7 339 15 101650 68
2004-07-13 07:26:04 51°25.478 2°57.749 8.2 338 15 101650 68
2004-07-13 07:26:09 51°25.495 2°57.76 8 342 15 101650 68
2004-07-13 07:26:15 51°25.514 2°57.774 7.8 337 15 101650 69
2004-07-13 07:26:21 51°25.534 2°57.787 8.3 333 15 101650 69
2004-07-13 07:26:24 51°25.543 2°57.794 8.2 332 15 101660 69
2004-07-13 07:26:28 51°25.557 2°57.803 8 336 15 101660 69
2004-07-13 07:26:36 51°25.583 2°57.822 8.7 333 15 101660 69
2004-07-13 07:26:41 51°25.6 2°57.833 9.4 337 15 101660 69
2004-07-13 07:26:45 51°25.614 2°57.842 8.6 337 15 101660 69
2004-07-13 07:26:50 51°25.63 2°57.853 7.4 335 15 101660 69
2004-07-13 07:26:56 51°25.65 2°57.868 7.5 329 15 101660 69
2004-07-13 07:27:00 51°25.664 2°57.877 7.9 335 15 101660 69
2004-07-13 07:27:06 51°25.683 2°57.891 6.9 335 15.1 101660 69
2004-07-13 07:27:10 51°25.696 2°57.9 7.7 334 15.1 101660 69
2004-07-13 07:27:15 51°25.713 2°57.911 7.9 328 15 101650 69
2004-07-13 07:27:20 51°25.729 2°57.923 8.6 330 15 101650 69
2004-07-13 07:27:26 51°25.749 2°57.937 8.5 337 15 101640 69
2004-07-13 07:27:30 51°25.762 2°57.947 9.4 331 15 101640 69
2004-07-13 07:27:35 51°25.779 2°57.959 9.8 331 15 101670 68
2004-07-13 07:27:40 51°25.796 2°57.97 10.1 332 15 101670 68
2004-07-13 07:27:45 51°25.812 2°57.982 10.3 326 15 101670 69
2004-07-13 07:27:49 51°25.826 2°57.992 9.1 329 15 101670 69
2004-07-13 07:27:55 51°25.846 2°58.005 8.5 327 15 101660 69
2004-07-13 07:28:01 51°25.866 2°58.019 9 330 15 101660 69
2004-07-13 07:28:06 51°25.882 2°58.031 8.6 329 15 101650 69
2004-07-13 07:28:10 51°25.896 2°58.04 8.8 325 15 101650 69
2004-07-13 07:28:13 51°25.906 2°58.047 8.8 332 15 101630 69
2004-07-13 07:28:21 51°25.932 2°58.065 9.1 327 15 101630 69
2004-07-13 07:28:25 51°25.946 2°58.075 8.7 329 15 101650 68
2004-07-13 07:28:30 51°25.962 2°58.087 8.5 331 15 101650 68
2004-07-13 07:28:33 51°25.973 2°58.094 8.8 332 15 101650 68
2004-07-13 07:28:41 51°25.999 2°58.113 8.3 322 15 101650 68
2004-07-13 07:28:45 51°26.012 2°58.122 9.6 331 15 101660 67
2004-07-13 07:28:52 51°26.036 2°58.138 8.9 327 15 101660 67
2004-07-13 07:28:57 51°26.052 2°58.149 9.6 335 15 101650 68
2004-07-13 07:29:02 51°26.069 2°58.161 10.2 336 15 101650 68
2004-07-13 07:29:06 51°26.082 2°58.17 8.9 333 15 101650 68
2004-07-13 07:29:12 51°26.102 2°58.184 9.3 338 15 101650 68
2004-07-13 07:29:16 51°26.115 2°58.193 8.2 331 15 101650 68
2004-07-13 07:29:21 51°26.131 2°58.205 8.4 333 15 101650 68
2004-07-13 07:29:25 51°26.144 2°58.213 9.3 335 15.1 101640 69
2004-07-13 07:29:32 51°26.167 2°58.229 9.4 341 15.1 101640 69
2004-07-13 07:29:35 51°26.177 2°58.237 8.9 336 15 101650 69
2004-07-13 07:29:42 51°26.199 2°58.252 8.7 336 15 101650 69
2004-07-13 07:29:46 51°26.212 2°58.261 9.1 331 15 101660 68
2004-07-13 07:29:52 51°26.231 2°58.275 8.3 331 15 101660 68
2004-07-13 07:29:55 51°26.241 2°58.282 8.8 335 15 101640 69
2004-07-13 07:30:02 51°26.263 2°58.298 9 336 15 101640 69
2004-07-13 07:30:05 51°26.273 2°58.305 10.5 336 15 101640 69
2004-07-13 07:30:12 51°26.295 2°58.321 10 333 15 101640 69
2004-07-13 07:30:16 51°26.307 2°58.33 8.5 338 15 101640 69
2004-07-13 07:30:21 51°26.323 2°58.341 8.8 335 15 101640 69
2004-07-13 07:30:26 51°26.34 2°58.352 9.5 338 15.1 101660 69
2004-07-13 07:30:30 51°26.352 2°58.361 8.7 336 15.1 101660 69
2004-07-13 07:30:36 51°26.372 2°58.375 8.1 337 15 101630 69
2004-07-13 07:30:42 51°26.391 2°58.388 8.1 331 15 101630 69
2004-07-13 07:30:45 51°26.4 2°58.395 8.5 336 15 101670 68
2004-07-13 07:30:52 51°26.423 2°58.411 8.6 337 15 101670 68
2004-07-13 07:30:57 51°26.438 2°58.422 9.1 331 15 101660 68
2004-07-13 07:31:01 51°26.45 2°58.431 10.3 333 15 101660 68
2004-07-13 07:31:06 51°26.466 2°58.442 8.7 334 15 101660 69
2004-07-13 07:31:12 51°26.485 2°58.456 9.6 331 15 101660 69
2004-07-13 07:31:16 51°26.498 2°58.465 8.9 330 15.1 101670 69
2004-07-13 07:31:22 51°26.518 2°58.479 8.2 332 15.1 101670 69
2004-07-13 07:31:26 51°26.531 2°58.488 9.1 334 15.1 101640 70
2004-07-13 07:31:32 51°26.551 2°58.502 7.8 335 15.1 101640 70
2004-07-13 07:31:36 51°26.564 2°58.511 8.6 337 15.1 101640 70
2004-07-13 07:31:41 51°26.58 2°58.523 8.4 334 15.1 101640 70
2004-07-13 07:31:45 51°26.593 2°58.532 8.5 334 15.1 101660 69
2004-07-13 07:31:52 51°26.616 2°58.548 7.6 340 15.1 101660 69
2004-07-13 07:31:55 51°26.625 2°58.555 7.8 341 15 101670 69
2004-07-13 07:32:02 51°26.648 2°58.571 8.6 338 15 101670 69
2004-07-13 07:32:06 51°26.661 2°58.581 8.8 343 15 101650 69
2004-07-13 07:32:12 51°26.68 2°58.594 8.9 338 15 101650 69
2004-07-13 07:32:17 51°26.696 2°58.606 7.5 340 15 101660 69
2004-07-13 07:32:22 51°26.712 2°58.617 8.5 338 15 101660 69
2004-07-13 07:32:26 51°26.725 2°58.626 8.3 342 15 101650 69
2004-07-13 07:32:32 51°26.745 2°58.639 8.8 340 15 101650 69
2004-07-13 07:32:36 51°26.758 2°58.649 7.2 342 15 101660 69
2004-07-13 07:32:42 51°26.778 2°58.662 9.2 338 15 101660 69
2004-07-13 07:32:47 51°26.794 2°58.674 8.7 343 15 101670 69
2004-07-13 07:32:56 51°26.824 2°58.695 9.1 343 15 101670 69
2004-07-13 07:33:02 51°26.843 2°58.709 10.6 340 15 101670 69
2004-07-13 07:33:07 51°26.86 2°58.72 8.6 339 15.1 101660 70
2004-07-13 07:33:12 51°26.876 2°58.732 9.1 342 15.1 101660 70
2004-07-13 07:33:18 51°26.896 2°58.746 9.2 343 15 101650 70
2004-07-13 07:33:23 51°26.912 2°58.757 9 339 15 101650 70
2004-07-13 07:33:28 51°26.928 2°58.769 8.5 339 15.1 101650 69
2004-07-13 07:33:33 51°26.944 2°58.781 8.7 340 15.1 101650 69
2004-07-13 07:33:38 51°26.96 2°58.793 9.7 340 15.1 101660 69
2004-07-13 07:33:42 51°26.973 2°58.803 9.3 341 15.1 101660 69
2004-07-13 07:33:48 51°26.992 2°58.817 9 341 15 101660 68
2004-07-13 07:33:53 51°27.009 2°58.828 8.9 339 15 101660 68
2004-07-13 07:33:57 51°27.022 2°58.838 8.6 342 15 101660 68
2004-07-13 07:34:02 51°27.038 2°58.849 8.3 343 15 101660 68
2004-07-13 07:34:08 51°27.058 2°58.863 8.8 341 15 101650 68
2004-07-13 07:34:13 51°27.074 2°58.874 9 343 15 101650 68
2004-07-13 07:34:17 51°27.087 2°58.883 8.6 342 15 101660 68
2004-07-13 07:34:22 51°27.104 2°58.895 8.3 341 15 101660 68
2004-07-13 07:34:27 51°27.12 2°58.906 8.9 345 15 101660 67
2004-07-13 07:34:32 51°27.136 2°58.917 8.7 337 15 101660 67
2004-07-13 07:34:37 51°27.153 2°58.929 9.2 337 15 101650 67
2004-07-13 07:34:42 51°27.169 2°58.94 8.7 337 15 101650 67
2004-07-13 07:34:48 51°27.188 2°58.953 9.2 332 15 101660 67
2004-07-13 07:34:52 51°27.2 2°58.962 8.6 330 15 101660 67
2004-07-13 07:34:55 51°27.21 2°58.97 8.7 337 15 101670 68
2004-07-13 07:35:02 51°27.232 2°58.986 8.3 336 15 101670 68
2004-07-13 07:35:05 51°27.242 2°58.993 8.4 331 15 101650 68
2004-07-13 07:35:13 51°27.267 2°59.01 8.9 333 15 101650 68
2004-07-13 07:35:17 51°27.28 2°59.02 10.3 338 15 101650 68
2004-07-13 07:35:22 51°27.297 2°59.031 9 340 15 101650 68
2004-07-13 07:35:28 51°27.316 2°59.045 9.2 342 15 101660 68
2004-07-13 07:35:33 51°27.332 2°59.056 9.9 335 15 101660 68
2004-07-13 07:35:37 51°27.345 2°59.065 8.3 332 15 101650 69
2004-07-13 07:35:42 51°27.361 2°59.076 9.4 339 15 101650 69
2004-07-13 07:35:48 51°27.381 2°59.09 9 342 15.1 101650 69
2004-07-13 07:35:52 51°27.393 2°59.098 8.9 345 15.1 101650 69
2004-07-13 07:35:56 51°27.407 2°59.107 10.1 341 15.1 101660 69
2004-07-13 07:36:02 51°27.425 2°59.121 10.6 341 15.1 101660 69
2004-07-13 07:36:08 51°27.444 2°59.135 8.5 338 15.1 101660 70
2004-07-13 07:36:13 51°27.461 2°59.146 9.3 340 15.1 101660 70
2004-07-13 07:36:16 51°27.47 2°59.153 9.8 335 15.1 101660 69